"Pseudo-MPEC" for OCA1315

Created 2023 Jan 8 22:22:10 UT using Find_Orb

Click here for an explanation of pseudo-MPECs

 
 Astrometry: 
     OCA1315  C2022 07 19.40780722 27 41.361-24 21 28.37   ~CCM7x19.78RUNEOCPI41
     OCA1315  C2022 07 19.40828022 27 40.942-24 21 38.18   ~CCM7       UNEOCPI41
     OCA1315*KC2022 07 22b(A8^.IfkPHtQS]PPavw]0kAstrometry=.+lQ(.3IGrWJ8!`vR9X74
     OCA1315 KC2022 07 223\itXCr;D(,;klbvtp/wq[.Bs0w3`Os1pHCm@9kyamkICes-khJgX74
     OCA1315 KC2022 07 224OtmVHXpUMjn?Fnn_)7%DAm3l4)RXUy4#1:Mghq[a=OA1iJInLG5X74
     OCA1315 KC2022 07 22t4[b=bovqndtZY!GGr\b5f]!U-J#3Kla`NJWjsSaAr5!Q6Rb_:QKL87
     OCA1315 KC2022 07 22QRZ8V]%()gBWky!d-b+%Q-VA/b)HV[M-3-EDDJL(kn_\GaT#,3/mL87
     OCA1315 KC2022 07 22CPV+ZYao,n\nmlRt/4FuF0R,DayAl0MLi4uO]WCP86HD0XED$!s$L87
     OCA1315 KC2022 07 23.04619321 47 34.686-38 24 56.26   ~7N27 19.5 GXNEOCPY00
     OCA1315 KC2022 07 23.05242721 47 29.512-38 26 24.94   ~7N27 19.3 GXNEOCPY00
     OCA1315 KC2022 07 23.05842021 47 24.550-38 27 49.71   ~7N27 19.2 GXNEOCPY00
     OCA1315 KC2022 07 2311/A0Q3t$9=lhmOF6Z^(\7:[5\cwnC.Wdr.Rm2E0Y4WbZnBrtKTeX74
     OCA1315 KC2022 07 23e6U^Lr[t;CRY;`1bMWs`kPH%xkQMp_l5OGMVsbP4+(nGCYcJj\0[X74
     OCA1315 KC2022 07 23gX:?#Els__ch`6DZyuH^#_PIJ@_ZV9pFpljU+SClihB=N[tE@uuCX74
     OCA1315 KC2022 07 23E;)qcsB/ilVYGa2D-Vf3R)3Xa.S6+R+4XWx+yauk=.lYAjfQ1]:pX74
     OCA1315 KC2022 07 23qr1Y%GdX,Sjc+vlKadY-CTx/_/cC#3nPDM/EkgRD2oObfv3M:F[]X74
     OCA1315 KC2022 07 23U3F:vd]yw+)vX9AJZMHlwxTcNA6hhKKw^K745O4gZqcmd^qEf?7=X74
     OCA1315 KC2022 07 23=lk3p3Uv^R4dDISM7@-.]TsvKrk/YbU9.CcAx_Z+tDOww4rcvUI+221
     OCA1315 KC2022 07 23CuGh+ZQ:s9]]46BnAplJGD5ifKa5W+1XMp9$d2qHI`8FTYp!]EcS221
     OCA1315 KC2022 07 23;,?fn/wStVDo_.[0redacted;V+pnQ%'GZe%[s@hl`6!^CO:#sc(221
     OCA1315 KC2022 07 24DM8OwaB(\;m;v@5d3PT44w(U7kqs5D2?BMyxo'50O*ao@K\pZq^1X74
     OCA1315 KC2022 07 245ff1^\f?X9sWbFM)P4Sp95@s`$_OjKVU/0VFvu$iH[+#'X,XF9(`X74
     OCA1315 KC2022 07 24OI35'r?LxO'a_]-532$[Gc^OBEah^C(3F#NhBfK[N0?5y,GWgo@xX74
     OCA1315 1C2022 07 24bK9+/\3C))1rve8GF@W?VVK#g9L-?Jpj=UShv]LPHxL36s3W*Sg:Q62
     OCA1315 1C2022 07 24$D'qq5ju_Z9:h9\dPbox`Aew;x.EQO`0sA'jVrf;,%/trF9H..o)Q62
     OCA1315 1C2022 07 24?FD=TDI)^3%:G\f3QMl;!da:fofd`_0*(%!@8XF-%\slgF^(Cph9Q62
     OCA1315 KC2022 07 25s.W3mB=I`Otgt@tSVHyxH]ZJ9$A'=niN'\px+WRZMMGmPT$xSVGjX74
     OCA1315 KC2022 07 256K)nlde:S:A50@tAr/nEe;m;IKn'oFq@)fgmQ'EIiVCdw;sl;^abX74
     OCA1315 KC2022 07 25SegGAHh?]q_J?kQ?6T/lwclicksDmFjb^QJkp7989/XlQrppcjy0X74
     OCA1315 KC2022 07 25yF.LjUL4=0?AU62nNK$.]J_Uu0rQLayrIhere%$Q*u;Ip_(?gSCuX74
     OCA1315 KC2022 07 257G[FvE?MEkix=8#3qT=lof/ek*mE'i6)$\%I!-HFvF=4IP+#mxL4X74
     OCA1315 KC2022 07 25a7:RvaQWPg`.J@W%'Y#%CkNtw+AOW/jI#vEe(Vooq$sk5SroYutfX74
     OCA1315 KC2022 07 25#v=.rlf'6i_g4JoD?;w8,gk$\$S0@gW]vO*0t+oassV=mO3jg?W2L29
     OCA1315 KC2022 07 25xm6QXKEM/AVm7AgBj)od93WhF!/?3A=Z1I8Nt^U]Y2*qSrmCUcanL29
     OCA1315 KC2022 07 25Pr7PNFoaBgASj4[dr7+#,VXJS33o\=gMm;sV;]RIMf*l8AnCDTYJL29
     OCA1315 KC2022 07 25bF7W\Tx/Gn]=JR!!NB,@4'4XLiXZH\BHsS+'R:(FwEJPF'+uI7o8L29
     OCA1315 KC2022 07 26?^pEM(YOw7/\r;waNEfXlmdApUj.NNXM!:-PX/(IrdA4;AODA;3.X74
     OCA1315 KC2022 07 26@.YPRA$'R(:_3sHov@YTu9^?ZyuGbpUAF.$iVK1o^^qSZ8gRFl*5X74
     OCA1315 KC2022 07 26L^dtFZ)AZ7]_To,eej#\x7N?jO[\3J.q4(qo2l)#Ph^^^j##49f=X74
     OCA1315 KC2022 07 26h+aq@C^j,0Y4'Nt1X$8`?;NyT;pvXmAU,eaDvCLPq^.O8$kPdkm=X74
     OCA1315 KC2022 07 26yb4vbFC]!OIckG9iNC`f,j$d5T)yP=x8+N+r^-!aJGb=6j`PVF@4X74
     OCA1315 KC2022 07 261Vh:0AD't\3H\rttYv5)CR3B;cSa*gr`0fpQ0wKldN)]HWpxGAyTX74
     OCA1315 KC2022 07 26TuorNWOLfWc]s(1V?Y35XZiS3Db/9Z7p6-R3pkv[NI=9%\LmL*'oM21
     OCA1315 KC2022 07 26.95168620 39 25.974-52 24 48.97   ~7QNq 19.5 GXNEOCPY00
     OCA1315 KC2022 07 26.96210320 39 12.492-52 26 43.59   ~7QNq 19.9 GXNEOCPY00
     OCA1315 KC2022 07 26.97232420 38 59.248-52 28 35.91   ~7QNq 19.7 GXNEOCPY00
     OCA1315 KC2022 07 278o9TX-hoW$#WV6Mt[$/cMM-c)53[+%Px3.+!$c%[t[K/a?J-F':/X74
     OCA1315 KC2022 07 270nywP*W(jihlmQq(%-S'p:-i?o5/y0Xxa.(hd/1,UX7`=3nD^b,MX74
     OCA1315 KC2022 07 27[!=[0kB:-*vKs:4^GC=^J#!7Ku4,#o-tQ=jv:^]DZ/=NwuAs4EviX74
     OCA1315 KC2022 07 28\Hi26u5_(c6Sg:7J^q3Vye2O,+cQ[Rg]Bys=hYQI*jnAoRl\blGtX74
     OCA1315 KC2022 07 28A-Y^8;6x2YL*H_*yb^^SRY^L^Gr,ummUQ,JAfHTEN8m3vGvZ_Of+X74
     OCA1315 KC2022 07 28$Di%pO!cC0nOZ6o\D:1\bDXc@lHIX@T6?x5M=yp'Gya7nw[c.qK-X74
     OCA1315 HC2022 07 28)h'O6Qa0_xO7:eeW5^?iyW7v8_d%lGmsw]$^n\wUvt-40ETSx1jOM21
     OCA1315 KC2022 07 28#k4ApiS@!2$IP;G_k=ZSRDx`wQqgN2:p]t9!M3_7i,MORj/+vS]\M21
     OCA1315 KC2022 07 29P4-q:\*.,g(yB02DI#J9dQhvQGL*^/4Mp+gRiP8V2kxB#wl[!_E-X74
     OCA1315 KC2022 07 29M;]X/rPMi5oA%E45W%hT]?r@_q'f2dD(t`(lj0[%%W^$Et5$bi;[X74
     OCA1315 KC2022 07 29Cg!(^]nJGlRu,5BvEWJh:(g4=lPaa1*OgggJ58K(DGhYCe$A(C[0X74
     OCA1315 KC2022 07 300J(Cdf'mSnZW*L(fq)TPLsUM:7pPZ*]T'!@.nsW(*;U3'L5C/1p#X74
     OCA1315 KC2022 07 30I@SKS/7.6l(x:V/C`Jxs+$jA3Pl]-;Wa@1nO#?o_=0;MS!Q+O]/sX74
     OCA1315 KC2022 07 30$i`.[C;PTpeqEhM8f\H'cU]::fwI_UlEc(BYXv5);,(^4Gv]x\S?X74
     OCA1315 KC2022 07 31:G+lJD!C?DexW;3`Vth:.i6bLhDLu=ABglh/C--._dIs$ZmGtU6eX74
     OCA1315 KC2022 07 31q=Spi)3dKjQjt'4[hvforAS:1ZaX.pIsgf']/0Kt[;%S+y4?[#p0X74
     OCA1315 KC2022 07 31ppA*WT8M#fnCmRRW#LlR#+4wf7mB!=8CGIQ9PT%EQLQ)].0P*)GhX74
     OCA1315 KC2022 08 010M01j#.kL_+WmdDk-(N;8XATbJ!'+ikXTIW1n]Jy:p/#D7r\p9jXX74
     OCA1315 KC2022 08 01F9I5*[Ca^LS^vRxnJIeYL/qEFA86S0\m3LQoIlSJ,bo9:=cc(w6lX74
     OCA1315 KC2022 08 01H5li'\B8siKEA@ngNr`4Z/MuLk8/B(Uj=GYE)!]Eb!@]J-1vmy1VX74
     OCA1315 KC2022 08 03'`)rxl:'G^xH=C+rZb=wc]ZgEE8DOIK5Rw3xknyOmGFj,sKn62N\X74
     OCA1315 KC2022 08 03Ssexplanation[qe%F4+[@\Ir(qq1dr2U%+ZMu\_Ir9vS0b21PqFX74
     OCA1315 KC2022 08 03KToC6g;G+gY`Ftt:03=(L:[7VHH,?nWMUc_pej7x+^=%2W6EtrLhX74

Station data:
(221) IAS Observatory, Hakos  (S23.236367 E16.361700)  Namibia.  Observers D.
   Husar, L. Demetz. Measurer D. Husar. 0.2-m f/3 Riccardi-Honders + CCD0.5-m
   f/6.8 Corrected Dall-Kirkham + CCD.
(I41) Palomar Mountain--ZTF  (N33.357338 W116.859780)  US/California.
   Observers B. T. Bolin, Z. T. F. Collaboration. Measurers B. T. Bolin,
   Z.-Y. Lin, F. J. Masci. 1.2-m f/2.4 Schmidt.
(L29) Drebach-South Observatory, Windhoek  (S23.460100 E18.016900)  Namibia.
   Observer G. Lehmann. 0.4-m f/3.6 reflector + CCD.
(L87) Moonbase South Observatory, Hakos  (S23.236420 E16.361890)  Namibia.
   Observer G. Duszanowicz. 0.36-m f/7.7 reflector + CCD.
(M21) Schiaparelli Southern Observatory, Hakos  (S23.236549 E16.361440)
   Namibia.
(Q62) iTelescope Observatory, Siding Spring  (S31.273286 E149.064420)
   Australia/NSW.  Observer H. Sato. 0.51-m f/6.8 astrograph + CCD + f/4.5
   focal reducer0.43-m f/6.8 astrograph + CCD + focal reducer0.43-m f/6.8
   astrograph + CCD0.10-m f/5 astrograph + CCD0.127-m f/5.6 refractor +
   CCD0.50-m f/6.8 reflector + CCD0.30-m f/9 reflector + CCD.
(X74) Observatório Campo dos Amarais  (S21.661261 W50.849400)  Brazil.
   Observer L. S. Amaral. 0.3-m f/4 reflector + CCD.
(Y00) SONEAR Observatory, Oliveira  (S20.715080 W44.784960)  Brazil.
   Observers C. Jacques, E. Pimentel, J. Barros. Measurer C. Jacques. 0.45-m
   f/2.9 astrograph + CCD.

Orbital elements:  OCA1315
   Perihelion 2022 Jul 30.52437 +/- 0.0314 TT = 12:35:05 (JD 2459791.02437)
Epoch 2022 Aug  3.0 TT = JDT 2459794.5   Earth MOID: 0.3610   Ma: 0.0219
M   0.39598833 +/- 0.0030           (J2000 ecliptic)             AutoNEOCP
n   0.11393289 +/- 0.00191          Peri.  193.77064 +/- 0.014
a   4.21408512 +/- 0.0473           Node   128.31788 +/- 0.008
e   0.6765607 +/- 0.00356           Incl.  124.05461 +/- 0.026
P   8.65                   H 19.59  G  0.15   U  8.5
q 1.36300071 +/- 0.000244    Q 7.06516953 +/- 0.0944
61 of 69 observations 2022 July 19-Aug. 3; mean residual 0".52
Residuals in arcseconds: 
220719 I41( 2.2+  5.2+)   220724 Q62  .27-  1.2-    220727 X74  .02+  .20+    
220719 I41  .07-  1.6+    220724 Q62  .32-  1.1-    220727 X74  .62+  .15+    
220722 X74( .60-  1.7-)   220724 Q62  .36-  1.5-    220727 X74  .21+  .12+    
220722 X74  .38+  .73-    220725 X74  .02+  .25-    220728 X74  .40-  .07-    
220722 X74  .19-  1.4-    220725 X74  .21+  .28-    220728 X74  .28-  .36-    
220722 L87  .04-  .18+    220725 X74  .07+  .17-    220728 X74  .22+  .50-    
220722 L87  .05+  .15-    220725 X74  .04+  .94+    220728 M21  .17+  .18-    
220722 L87  .35+  .30-    220725 X74  .58-  .17-    220728 M21  .48+  .18+    
220723 Y00  .20-  .15-    220725 X74  .24-  .39+    220729 X74  .20-  .09+    
220723 Y00  .20-  .30-    220725 L29( .26+  1.6+)   220729 X74  .15-  .37-    
220723 Y00  .01+  .02+    220725 L29  1.4+  .11+    220729 X74  .08+  .02+    
220723 X74  .80-  .16+    220725 L29( 1.6-  .95-)   220730 X74  .07-  .11+    
220723 X74  .79-  .78+    220725 L29  .24+  .33+    220730 X74  .25+  .09+    
220723 X74  .90-  .25+    220726 X74( .60+  1.5+)   220730 X74  .79+  .41-    
220723 X74  .09-  .33-    220726 X74  .28+  1.2+    220731 X74  .66+  .10+    
220723 X74  .20+  .59-    220726 X74  .18+  .79+    220731 X74  .22-  .22+    
220723 X74  .33-  .10+    220726 X74  1.3-  .34-    220731 X74  .38-  .52+    
220723 221( 2.3-  1.5-)   220726 X74  .62-  .22+    220801 X74  1.3+  .17+    
220723 221( 2.1-  1.7-)   220726 X74  .37+  .59+    220801 X74  .72-  .01-    
220723 221( 1.6-  1.4-)   220726 M21  .74+  1.1+    220801 X74  .19-  .27-    
220724 X74  .24-  .41-    220726 Y00  .26+  .32+    220803 X74  1.0-  .04+    
220724 X74  .29-  .18-    220726 Y00  .21+  .20+    220803 X74  .08-  .58+    
220724 X74  .16-  .56-    220726 Y00  .21+  .04+    220803 X74  .71-  .29+    

Ephemerides (geocentric):
Date (UTC) HH   RA             Dec           delta  r     elong  mag " sig PA
---- --------  ------------   ------------  ------ ------ -----  --- --------
2023 01 08 22  13 43 34.931   -63 44 07.11  2.4472 2.2595  67.4 24.5 45.2  30
2023 01 08 23  13 43 29.605   -63 44 42.33  2.4470 2.2598  67.4 24.5 45.3  30
2023 01 09 00  13 43 24.269   -63 45 17.56  2.4467 2.2602  67.5 24.5 45.4  30
